Location: Asheville, NC
(35.6000°N, 82.5500°W)
Time: 22:39:53
(UTC-05:00)

AO-7 - Pass Details

Date: 03 January 2018
Orbit: 1440 x 1458 km, 101.7° (Epoch: 17 January)

Event Time Altitude Azimuth Distance (km) Brightness Sun altitude
Rises 06:19:10 0° 0° (N) 4,570 ? -16.0°
Reaches altitude 10° 06:23:20 10° 341° (NNW) 3,587 ? -15.2°
Maximum altitude 06:27:49 16° 308° (NW) 3,139 ? -14.4°
Enters shadow 06:27:52 16° 307° (NW) 3,139 ? -14.4°
